�N����,�����b,�ŏ������i�x�j,���ϕ����i�x�j,�ő啗���i�x�j,�ŏ�����(m/s),���ϕ���(m/s),�ő啗��(m/s),�C��(���j,���x�i���j,�C��(hPa),�~�J��(mm),�~�J����(�b�j,�~�J���x(mm/h),�ő�~�J���x(mm/h),�~�Ђ傤��(hit/���u),�~�Ђ傤����(�b�j,�~�Ђ傤���x(hit/���uh),�ő�~�Ђ傤���x(hit/���uh),�q�[�^���x(���j,�q�[�^�[�d���iV),�d���d���iV),�Q�Ɠd���iV)
2012/08/07,11:10:01,131,138,144,2.3,3.1,3.9,29.7,78.5,994.1,0.00,0,0.0,////,0.0,0,0.0,////,31.8,0.0,12.3,3.511
2012/08/07,11:20:01,135,148,163,3.7,4.0,4.3,29.2,78.5,993.9,0.00,0,0.0,////,0.0,0,0.0,////,30.8,0.0,12.3,3.511
2012/08/07,11:30:01,160,172,179,3.7,5.0,5.8,29.4,77.2,994.0,0.00,0,0.0,////,0.0,0,0.0,////,30.8,0.0,12.3,3.513
2012/08/07,11:40:01,113,129,149,3.0,3.4,3.7,29.1,79.4,994.0,0.00,0,0.0,////,0.0,0,0.0,////,30.0,0.0,12.3,3.511
2012/08/07,11:50:01,145,167,192,0.9,1.1,1.2,29.0,78.9,994.1,0.00,40,0.1,////,0.0,0,0.0,////,30.1,0.0,12.3,3.511
2012/08/07,12:00:01,166,174,182,3.2,3.4,3.6,29.2,79.2,994.3,0.00,90,0.0,////,0.0,0,0.0,////,30.1,0.0,12.3,3.511
2012/08/07,12:10:01,233,243,248,0.8,1.1,1.6,29.3,78.4,994.2,0.00,0,0.0,////,0.0,0,0.0,////,30.8,0.0,12.3,3.511
2012/08/07,12:20:01,119,143,158,2.6,3.0,3.2,29.5,75.8,994.2,0.00,0,0.0,////,0.0,0,0.0,////,31.5,0.0,12.3,3.511
2012/08/07,12:30:01,161,177,190,5.0,5.6,6.1,29.7,75.7,994.1,0.00,0,0.0,////,0.0,0,0.0,////,31.7,0.0,12.3,3.511
2012/08/07,12:40:01,123,137,152,2.5,3.1,3.8,29.8,76.0,994.0,0.00,0,0.0,////,0.0,0,0.0,////,32.0,0.0,12.3,3.511
2012/08/07,12:50:01,149,156,169,6.7,7.5,8.2,29.2,76.7,993.9,0.00,0,0.0,////,0.0,0,0.0,////,30.6,0.0,12.3,3.511
2012/08/07,13:00:01,161,163,166,4.1,4.3,4.7,29.1,79.0,994.0,0.00,10,0.0,////,0.0,0,0.0,////,30.1,0.0,12.3,3.513
2012/08/07,13:10:01,186,195,204,4.2,4.6,4.9,29.7,76.4,994.2,0.00,0,0.0,////,0.0,0,0.0,////,31.7,0.0,12.3,3.511
2012/08/07,13:20:01,120,134,143,2.6,3.4,3.9,29.7,76.0,994.2,0.00,0,0.0,////,0.0,0,0.0,////,32.2,0.0,12.3,3.511
2012/08/07,13:30:01,176,178,181,1.6,1.7,1.9,28.6,79.5,994.1,0.83,250,2.7,////,0.0,0,0.0,////,29.4,0.0,12.3,3.513
2012/08/07,13:40:01,164,168,174,4.3,4.5,4.6,27.9,83.7,994.2,0.01,20,0.0,////,0.0,0,0.0,////,27.9,0.0,12.3,3.508
2012/08/07,13:50:01,167,170,173,2.3,2.6,3.0,28.1,82.9,994.2,0.01,130,0.0,////,0.0,0,0.0,////,28.1,0.0,12.3,3.510
2012/08/07,14:00:01,152,181,199,2.4,2.5,2.7,28.2,80.8,994.0,0.00,0,0.0,////,0.0,0,0.0,////,28.6,0.0,12.3,3.510
2012/08/07,14:10:01,146,157,172,2.3,3.2,3.8,28.7,80.3,993.8,0.00,20,0.0,////,0.0,0,0.0,////,30.1,0.0,12.4,3.510
2012/08/07,14:20:01,139,164,180,2.2,3.0,3.8,29.1,78.8,993.9,0.00,50,0.0,////,0.0,0,0.0,////,31.5,0.0,12.3,3.511
2012/08/07,14:30:01,189,190,190,7.3,8.2,9.1,29.3,76.8,994.0,0.00,10,0.0,////,0.0,0,0.0,////,31.7,0.0,12.3,3.510
2012/08/07,14:40:01,177,187,200,2.3,3.3,4.2,29.0,76.3,994.0,0.00,0,0.0,////,0.0,0,0.0,////,30.6,0.0,12.3,3.511
2012/08/07,14:50:01,196,202,207,4.8,5.2,5.4,29.0,77.5,994.0,0.00,0,0.0,////,0.0,0,0.0,////,30.5,0.0,12.3,3.511
2012/08/07,15:00:01,165,174,183,1.3,1.9,2.4,29.2,80.6,994.0,0.00,0,0.0,////,0.0,0,0.0,////,30.5,0.0,12.3,3.510
2012/08/07,15:10:01,121,147,167,2.0,2.5,3.2,29.4,77.4,994.1,0.00,0,0.0,////,0.0,0,0.0,////,31.0,0.0,12.3,3.513
2012/08/07,15:20:01,154,159,164,2.1,2.2,2.4,29.5,76.9,994.1,0.01,30,0.0,////,0.0,0,0.0,////,31.2,0.0,12.3,3.510
2012/08/07,15:30:01,157,166,173,3.4,4.2,5.6,29.2,77.3,993.9,0.00,0,0.0,////,0.0,0,0.0,////,30.5,0.0,12.3,3.513
2012/08/07,15:40:01,169,173,180,5.5,6.1,6.8,29.1,77.0,994.0,0.00,0,0.0,////,0.0,0,0.0,////,30.1,0.0,12.3,3.510
2012/08/07,15:50:01,164,178,194,3.0,4.6,5.8,28.9,79.4,994.2,0.00,0,0.0,////,0.0,0,0.0,////,30.0,0.0,12.4,3.511
2012/08/07,16:00:01,143,164,188,1.9,2.6,3.5,28.7,80.5,994.3,0.00,0,0.0,////,0.0,0,0.0,////,29.4,0.0,12.3,3.511
2012/08/07,16:10:01,155,167,184,3.3,3.8,4.2,28.6,80.2,994.3,0.00,0,0.0,////,0.0,0,0.0,////,29.3,0.0,12.3,3.511
2012/08/07,16:20:01,148,163,172,4.0,4.3,4.6,28.5,79.2,994.6,0.00,0,0.0,////,0.0,0,0.0,////,29.1,0.0,12.3,3.511
2012/08/07,16:30:01,110,116,125,0.6,0.9,1.4,28.3,81.6,994.5,0.00,50,0.0,////,0.0,0,0.0,////,28.4,0.0,12.3,3.511
2012/08/07,16:40:01,157,170,184,2.2,2.5,2.8,28.2,81.4,994.5,0.00,0,0.0,////,0.0,0,0.0,////,28.6,0.0,12.3,3.511
2012/08/07,16:50:01,117,121,125,5.1,6.0,7.0,28.4,80.9,994.6,0.00,0,0.0,////,0.0,0,0.0,////,28.7,0.0,12.3,3.510
2012/08/07,17:00:01,128,145,166,1.5,1.8,2.2,28.4,80.2,994.5,0.01,90,0.3,////,0.0,0,0.0,////,28.4,0.0,12.4,3.513
2012/08/07,17:10:01,175,175,176,4.2,4.6,4.9,27.7,84.7,994.4,0.32,180,0.0,////,0.0,0,0.0,////,27.0,0.0,12.4,3.511
2012/08/07,17:20:01,122,127,136,3.4,3.6,3.9,27.7,85.3,994.5,0.03,50,1.7,////,0.0,0,0.0,////,27.2,0.0,12.4,3.513
2012/08/07,17:30:01,189,215,251,2.1,2.5,3.2,26.6,87.9,994.6,5.16,540,5.8,////,0.0,0,0.0,////,25.8,0.0,12.4,3.513
2012/08/07,17:40:01,172,175,177,2.8,3.1,3.6,26.5,89.2,994.4,0.67,340,0.0,////,0.0,0,0.0,////,25.3,0.0,12.3,3.513
2012/08/07,17:50:01,164,170,181,2.9,3.0,3.1,27.1,88.2,994.5,0.00,0,0.0,////,0.0,0,0.0,////,26.5,0.0,12.3,3.513
2012/08/07,18:00:01,180,192,201,1.4,1.6,1.9,27.3,87.3,994.7,0.02,80,0.0,////,0.0,0,0.0,////,26.5,0.0,12.3,3.510
2012/08/07,18:10:01,170,171,172,3.6,3.7,3.9,27.5,85.2,994.7,0.00,0,0.0,////,0.0,0,0.0,////,26.8,0.0,12.4,3.511
2012/08/07,18:20:01,163,171,184,5.1,5.5,6.4,27.5,85.7,994.8,0.00,0,0.0,////,0.0,0,0.0,////,27.0,0.0,12.4,3.510
2012/08/07,18:30:01,196,200,208,1.4,1.6,1.8,27.5,86.1,995.0,0.00,0,0.0,////,0.0,0,0.0,////,27.2,0.0,12.4,3.510
2012/08/07,18:40:01,131,145,160,1.7,1.9,2.2,27.2,86.6,995.1,0.20,230,0.1,////,0.0,0,0.0,////,26.5,0.0,12.4,3.513
2012/08/07,18:50:01,152,160,164,1.9,2.3,2.5,27.0,87.2,995.3,0.00,0,0.0,////,0.0,0,0.0,////,25.8,0.0,12.3,3.510
2012/08/07,19:00:01,168,173,179,2.9,3.2,3.3,27.0,87.2,995.4,0.06,140,0.3,////,0.0,0,0.0,////,25.8,0.0,12.2,3.511
2012/08/07,19:10:01,139,158,174,2.1,2.3,2.5,26.8,87.2,995.3,0.03,140,0.0,////,0.0,0,0.0,////,25.6,0.0,12.2,3.513
2012/08/07,19:20:01,176,181,185,3.4,3.8,4.2,26.7,85.4,995.2,0.00,0,0.0,////,0.0,0,0.0,////,25.3,0.0,12.3,3.511
2012/08/07,19:30:01,161,169,182,1.6,2.3,3.0,26.9,84.7,995.3,0.00,0,0.0,////,0.0,0,0.0,////,25.3,0.0,12.3,3.511
2012/08/07,19:40:01,109,135,154,3.2,3.8,4.5,26.8,85.8,995.5,0.00,0,0.0,////,0.0,0,0.0,////,25.8,0.0,12.3,3.511
2012/08/07,19:50:01,169,175,182,3.0,3.9,4.8,27.1,84.9,995.6,0.00,0,0.0,////,0.0,0,0.0,////,26.0,0.0,12.4,3.513
2012/08/07,20:00:01,117,135,146,3.1,4.1,4.7,27.1,85.7,995.7,0.00,0,0.0,////,0.0,0,0.0,////,25.8,0.0,12.2,3.513
2012/08/07,20:10:01,158,170,182,2.5,2.9,3.4,27.1,85.7,995.6,0.00,0,0.0,////,0.0,0,0.0,////,25.6,0.0,12.2,3.510
2012/08/07,20:20:01,164,169,177,5.3,5.8,6.3,27.2,85.9,995.8,0.00,40,0.0,////,0.0,0,0.0,////,26.0,0.0,12.3,3.511
2012/08/07,20:30:01,158,158,159,2.9,3.2,3.8,27.3,85.5,995.9,0.00,0,0.0,////,0.0,0,0.0,////,26.2,0.0,12.4,3.513
2012/08/07,20:40:01,172,179,190,2.1,2.3,2.6,27.4,84.4,995.9,0.00,0,0.0,////,0.0,0,0.0,////,26.5,0.0,12.3,3.511
2012/08/07,20:50:01,133,151,166,2.0,2.2,2.5,27.5,85.1,996.1,0.00,0,0.0,////,0.0,0,0.0,////,26.5,0.0,12.4,3.511
2012/08/07,21:00:01,191,193,195,5.3,5.6,5.8,27.4,85.7,996.2,0.00,0,0.0,////,0.0,0,0.0,////,26.5,0.0,12.3,3.513
2012/08/07,21:10:01,153,163,174,2.9,3.2,3.4,27.5,85.1,996.2,0.00,0,0.0,////,0.0,0,0.0,////,26.7,0.0,12.3,3.511
2012/08/07,21:20:01,109,135,169,0.5,0.7,0.9,27.5,84.8,996.4,0.00,0,0.0,////,0.0,0,0.0,////,26.7,0.0,12.3,3.513
2012/08/07,21:30:01,157,164,167,4.0,4.6,4.9,27.5,85.3,996.3,0.00,0,0.0,////,0.0,0,0.0,////,26.8,0.0,12.3,3.513
2012/08/07,21:40:01,175,178,179,4.4,5.0,5.6,27.6,84.2,996.5,0.00,0,0.0,////,0.0,0,0.0,////,26.7,0.0,12.3,3.511
2012/08/07,21:50:01,131,138,146,1.4,2.0,2.3,27.7,84.8,996.5,0.00,0,0.0,////,0.0,0,0.0,////,26.8,0.0,12.3,3.513
2012/08/07,22:00:01,156,157,158,2.3,2.6,2.9,27.5,85.3,996.6,0.00,0,0.0,////,0.0,0,0.0,////,26.5,0.0,12.3,3.511
2012/08/07,22:10:01,165,166,168,2.8,3.8,5.0,27.6,85.5,996.7,0.00,0,0.0,////,0.0,0,0.0,////,26.7,0.0,12.3,3.510
2012/08/07,22:20:01,163,164,165,2.6,2.9,3.1,27.6,85.3,996.7,0.00,0,0.0,////,0.0,0,0.0,////,26.8,0.0,12.3,3.511
2012/08/07,22:30:01,178,183,185,3.3,3.8,4.7,27.7,83.6,996.6,0.00,0,0.0,////,0.0,0,0.0,////,26.8,0.0,12.3,3.513
2012/08/07,22:40:01,161,173,182,2.1,2.3,2.7,27.8,83.6,996.7,0.00,0,0.0,////,0.0,0,0.0,////,26.8,0.0,12.3,3.511
2012/08/07,22:50:01,156,168,175,0.9,1.4,1.9,27.8,84.1,996.7,0.00,0,0.0,////,0.0,0,0.0,////,27.0,0.0,12.3,3.511
2012/08/07,23:00:01,159,161,165,2.4,2.6,2.7,27.7,83.7,996.7,0.00,0,0.0,////,0.0,0,0.0,////,26.5,0.0,12.3,3.511
2012/08/07,23:10:01,134,152,162,4.4,5.4,6.5,27.7,83.3,996.7,0.00,0,0.0,////,0.0,0,0.0,////,26.8,0.0,12.3,3.511
2012/08/07,23:20:01,168,172,176,3.9,4.5,5.0,28.0,82.1,996.7,0.00,0,0.0,////,0.0,0,0.0,////,27.0,0.0,12.3,3.513
2012/08/07,23:30:01,147,155,161,4.4,4.7,5.0,27.8,83.0,996.7,0.00,0,0.0,////,0.0,0,0.0,////,26.8,0.0,12.3,3.513
2012/08/07,23:40:01,173,176,178,2.0,2.3,2.4,27.8,82.7,996.5,0.00,0,0.0,////,0.0,0,0.0,////,27.2,0.0,12.3,3.511
2012/08/07,23:50:01,088,150,214,1.3,1.7,2.2,27.8,82.6,996.5,0.00,0,0.0,////,0.0,0,0.0,////,27.0,0.0,12.2,3.513
2012/08/08,00:00:01,172,179,183,2.5,2.8,3.0,27.8,82.4,996.4,0.00,0,0.0,////,0.0,0,0.0,////,26.8,0.0,12.3,3.511
2012/08/08,00:10:01,194,196,198,3.6,5.3,6.3,27.7,82.9,996.5,0.00,0,0.0,////,0.0,0,0.0,////,26.8,0.0,12.3,3.511
2012/08/08,00:20:01,130,148,168,1.0,1.1,1.2,27.8,82.4,996.3,0.00,0,0.0,////,0.0,0,0.0,////,26.8,0.0,12.4,3.513
2012/08/08,00:30:01,116,125,141,1.9,2.1,2.3,27.9,81.8,996.4,0.00,0,0.0,////,0.0,0,0.0,////,27.0,0.0,12.3,3.510
2012/08/08,00:40:01,073,116,181,0.6,1.0,1.3,27.9,81.1,996.3,0.00,0,0.0,////,0.0,0,0.0,////,27.0,0.0,12.3,3.511
2012/08/08,00:50:01,158,169,188,3.0,3.5,3.8,27.9,81.9,996.2,0.00,0,0.0,////,0.0,0,0.0,////,27.0,0.0,12.3,3.510
2012/08/08,01:00:01,162,165,168,3.8,4.0,4.1,27.8,81.8,996.3,0.00,0,0.0,////,0.0,0,0.0,////,26.5,0.0,12.3,3.510
2012/08/08,01:10:01,188,188,189,2.0,2.3,2.5,27.6,82.5,996.2,0.00,0,0.0,////,0.0,0,0.0,////,26.8,0.0,12.3,3.511
2012/08/08,01:20:01,137,153,164,1.9,2.1,2.3,27.6,82.2,996.2,0.00,0,0.0,////,0.0,0,0.0,////,26.8,0.0,12.3,3.513
2012/08/08,01:30:01,171,206,233,1.3,1.7,2.3,27.6,82.2,996.1,0.00,0,0.0,////,0.0,0,0.0,////,26.7,0.0,12.3,3.511
2012/08/08,01:40:01,167,174,180,4.5,4.9,5.5,27.5,82.6,996.0,0.00,0,0.0,////,0.0,0,0.0,////,26.5,0.0,12.3,3.513
2012/08/08,01:50:01,174,183,188,3.8,4.3,4.6,27.4,82.7,995.8,0.00,0,0.0,////,0.0,0,0.0,////,26.5,0.0,12.3,3.511
2012/08/08,02:00:01,138,147,153,1.2,1.3,1.4,27.4,82.4,995.7,0.00,0,0.0,////,0.0,0,0.0,////,26.3,0.0,12.3,3.513
2012/08/08,02:10:01,120,124,129,2.7,2.9,3.2,27.3,82.9,995.8,0.00,0,0.0,////,0.0,0,0.0,////,26.2,0.0,12.3,3.513
2012/08/08,02:20:01,170,179,191,3.9,4.2,4.9,27.3,83.0,995.8,0.00,0,0.0,////,0.0,0,0.0,////,26.3,0.0,12.3,3.511
2012/08/08,02:30:01,093,111,147,0.4,0.5,0.6,27.2,83.9,995.8,0.00,0,0.0,////,0.0,0,0.0,////,26.2,0.0,12.3,3.513
2012/08/08,02:40:01,148,159,164,3.4,4.2,4.9,27.2,83.7,995.9,0.00,0,0.0,////,0.0,0,0.0,////,26.2,0.0,12.3,3.513
2012/08/08,02:50:01,178,182,185,2.4,2.9,3.3,27.2,83.9,996.0,0.00,0,0.0,////,0.0,0,0.0,////,26.2,0.0,12.3,3.511
2012/08/08,03:00:01,161,164,166,1.7,2.1,2.4,27.2,84.0,996.0,0.00,0,0.0,////,0.0,0,0.0,////,26.0,0.0,12.3,3.511
2012/08/08,03:10:01,199,199,200,3.4,3.8,4.2,27.2,83.6,996.0,0.00,0,0.0,////,0.0,0,0.0,////,26.2,0.0,12.3,3.511
2012/08/08,03:20:01,173,182,190,1.9,2.1,2.3,27.3,82.9,996.1,0.00,0,0.0,////,0.0,0,0.0,////,26.0,0.0,12.3,3.513
2012/08/08,03:30:01,171,182,190,0.8,1.2,1.5,27.3,82.8,996.1,0.00,0,0.0,////,0.0,0,0.0,////,26.3,0.0,12.3,3.511
2012/08/08,03:40:01,147,152,155,3.0,3.4,3.9,27.5,82.3,996.1,0.00,0,0.0,////,0.0,0,0.0,////,26.7,0.0,12.3,3.511
2012/08/08,03:50:01,168,176,183,3.5,3.8,4.1,27.4,82.6,996.0,0.00,0,0.0,////,0.0,0,0.0,////,26.5,0.0,12.3,3.511
2012/08/08,04:00:01,154,166,175,4.3,4.4,4.5,27.5,82.2,996.0,0.00,0,0.0,////,0.0,0,0.0,////,26.5,0.0,12.3,3.511
2012/08/08,04:10:01,186,203,212,1.4,1.8,2.2,27.6,81.6,996.0,0.00,0,0.0,////,0.0,0,0.0,////,26.7,0.0,12.3,3.513
2012/08/08,04:20:01,179,184,192,1.3,1.5,1.8,27.4,81.9,996.0,0.00,0,0.0,////,0.0,0,0.0,////,26.5,0.0,12.3,3.513
2012/08/08,04:30:01,130,138,154,2.3,2.7,3.0,27.4,82.5,996.0,0.00,0,0.0,////,0.0,0,0.0,////,26.5,0.0,12.3,3.513
2012/08/08,04:40:01,141,154,164,3.0,3.3,3.4,27.3,82.8,996.1,0.00,0,0.0,////,0.0,0,0.0,////,26.3,0.0,12.2,3.513
2012/08/08,04:50:01,174,181,190,1.4,1.6,1.9,27.4,82.5,996.1,0.03,10,0.0,////,0.0,0,0.0,////,26.5,0.0,12.3,3.513
2012/08/08,05:00:01,169,171,176,4.0,4.2,4.5,27.5,82.8,996.1,0.00,0,0.0,////,0.0,0,0.0,////,26.5,0.0,12.3,3.513
2012/08/08,05:10:01,147,157,174,1.5,1.7,1.9,27.4,82.5,996.2,0.00,10,0.0,////,0.0,0,0.0,////,26.5,0.0,12.3,3.511
2012/08/08,05:20:01,124,134,141,1.4,1.6,2.0,27.3,83.8,996.2,0.09,150,1.6,////,0.0,0,0.0,////,26.0,0.0,12.4,3.511
2012/08/08,05:30:01,140,146,152,2.2,2.4,2.6,27.0,85.9,996.3,0.07,80,0.0,////,0.0,0,0.0,////,25.5,0.0,12.3,3.513
2012/08/08,05:40:01,167,176,183,0.9,1.0,1.1,27.0,85.9,996.5,0.00,0,0.0,////,0.0,0,0.0,////,25.5,0.0,12.3,3.510
2012/08/08,05:50:01,151,179,211,0.6,0.8,1.0,27.0,85.4,996.5,0.00,0,0.0,////,0.0,0,0.0,////,25.6,0.0,12.3,3.511
2012/08/08,06:00:01,179,180,182,1.1,1.3,1.5,27.0,85.3,996.5,0.00,0,0.0,////,0.0,0,0.0,////,25.8,0.0,12.3,3.511
2012/08/08,06:10:01,151,156,160,3.0,3.6,4.1,27.1,84.9,996.6,0.00,0,0.0,////,0.0,0,0.0,////,25.6,0.0,12.3,3.513
2012/08/08,06:20:01,113,122,131,0.4,0.5,0.6,27.2,83.9,996.6,0.00,0,0.0,////,0.0,0,0.0,////,26.2,0.0,12.3,3.513
2012/08/08,06:30:01,153,165,176,1.3,1.4,1.5,27.2,83.4,996.7,0.00,0,0.0,////,0.0,0,0.0,////,26.2,0.0,12.3,3.511
2012/08/08,06:40:01,153,195,237,0.2,0.6,0.9,27.4,82.8,996.9,0.00,0,0.0,////,0.0,0,0.0,////,26.7,0.0,12.3,3.513
2012/08/08,06:50:01,200,206,208,1.7,1.8,1.9,27.6,82.4,996.9,0.00,0,0.0,////,0.0,0,0.0,////,27.2,0.0,12.3,3.510
2012/08/08,07:00:01,110,139,156,1.1,1.3,1.7,27.6,82.0,996.9,0.00,0,0.0,////,0.0,0,0.0,////,28.1,0.0,12.3,3.511
2012/08/08,07:10:01,163,167,172,1.1,1.7,2.0,27.9,80.6,997.0,0.00,0,0.0,////,0.0,0,0.0,////,28.2,0.0,12.3,3.511
2012/08/08,07:20:01,155,157,160,2.8,3.3,3.6,28.0,80.5,997.1,0.00,0,0.0,////,0.0,0,0.0,////,28.4,0.0,12.3,3.510
2012/08/08,07:30:01,172,175,177,2.6,2.8,3.0,28.1,79.4,997.1,0.00,0,0.0,////,0.0,0,0.0,////,28.7,0.0,12.3,3.513
2012/08/08,07:40:01,171,176,181,2.3,2.5,2.7,28.3,79.7,997.3,0.00,0,0.0,////,0.0,0,0.0,////,29.1,0.0,12.3,3.511
2012/08/08,07:50:01,125,152,179,1.5,1.8,2.2,28.5,77.9,997.4,0.00,0,0.0,////,0.0,0,0.0,////,29.6,0.0,12.3,3.510
2012/08/08,08:00:01,181,193,199,0.4,0.9,1.4,28.8,77.7,997.6,0.00,0,0.0,////,0.0,0,0.0,////,30.6,0.0,12.3,3.511
2012/08/08,08:10:01,145,172,197,2.2,2.7,3.0,29.0,77.0,997.7,0.00,0,0.0,////,0.0,0,0.0,////,31.0,0.0,12.3,3.511
2012/08/08,08:20:01,139,148,154,1.8,1.9,2.1,29.1,77.5,997.8,0.00,0,0.0,////,0.0,0,0.0,////,31.2,0.0,12.3,3.511
2012/08/08,08:30:01,179,185,194,2.9,3.1,3.2,29.3,77.1,998.0,0.00,0,0.0,////,0.0,0,0.0,////,31.5,0.0,12.3,3.511
2012/08/08,08:40:01,162,180,190,1.1,2.2,3.2,29.1,75.8,998.0,0.00,0,0.0,////,0.0,0,0.0,////,31.3,0.0,12.3,3.510
2012/08/08,08:50:01,179,196,207,1.5,1.7,1.8,29.2,76.2,998.1,0.00,0,0.0,////,0.0,0,0.0,////,31.3,0.0,12.3,3.511
2012/08/08,09:00:01,198,210,216,0.8,0.9,1.1,29.4,76.2,998.2,0.00,0,0.0,////,0.0,0,0.0,////,31.8,0.0,12.3,3.511
2012/08/08,09:10:01,191,214,235,1.2,1.3,1.5,29.8,75.4,998.2,0.00,0,0.0,////,0.0,0,0.0,////,32.9,0.0,12.3,3.511
2012/08/08,09:20:01,093,128,173,0.6,1.3,1.8,29.9,73.0,998.2,0.00,0,0.0,////,0.0,0,0.0,////,33.2,0.0,12.3,3.513
2012/08/08,09:30:01,186,191,196,2.7,3.3,3.6,30.3,74.3,998.3,0.00,0,0.0,////,0.0,0,0.0,////,33.7,0.0,12.3,3.510
2012/08/08,09:40:01,144,150,161,1.3,1.4,1.5,30.4,72.3,998.2,0.00,0,0.0,////,0.0,0,0.0,////,34.3,0.0,12.3,3.511
2012/08/08,09:50:01,188,192,197,1.6,1.8,2.1,30.5,71.6,998.1,0.00,0,0.0,////,0.0,0,0.0,////,34.4,0.0,12.3,3.511
2012/08/08,10:00:01,167,175,182,2.5,2.9,3.3,30.4,71.5,998.1,0.00,0,0.0,////,0.0,0,0.0,////,33.7,0.0,12.3,3.511
2012/08/08,10:10:01,228,233,239,1.4,1.7,2.0,30.4,72.3,998.1,0.00,0,0.0,////,0.0,0,0.0,////,33.6,0.0,12.3,3.511
2012/08/08,10:20:01,166,190,206,2.0,3.1,4.0,30.6,71.5,998.1,0.00,0,0.0,////,0.0,0,0.0,////,33.9,0.0,12.3,3.511
2012/08/08,10:30:01,153,163,171,2.0,2.2,2.4,30.4,71.8,998.1,0.00,0,0.0,////,0.0,0,0.0,////,33.7,0.0,12.3,3.511
2012/08/08,10:40:01,193,202,211,1.7,2.0,2.3,30.7,70.4,998.0,0.00,0,0.0,////,0.0,0,0.0,////,34.3,0.0,12.3,3.511
2012/08/08,10:50:01,137,148,160,1.3,1.5,1.7,30.5,71.7,998.1,0.00,0,0.0,////,0.0,0,0.0,////,33.9,0.0,12.3,3.510
2012/08/08,11:00:01,211,216,221,1.1,1.3,1.4,31.0,72.0,998.0,0.00,0,0.0,////,0.0,0,0.0,////,35.0,0.0,12.3,3.510
2012/08/08,11:10:01,143,154,167,1.8,2.1,2.4,31.1,69.2,997.9,0.00,0,0.0,////,0.0,0,0.0,////,36.0,0.0,12.3,3.511
2012/08/08,11:20:01,238,243,250,0.9,1.1,1.3,30.7,72.2,997.9,0.00,30,0.0,////,0.0,0,0.0,////,34.4,0.0,12.3,3.511
2012/08/08,11:30:01,188,191,194,3.6,3.7,3.8,30.9,71.5,997.8,0.00,0,0.0,////,0.0,0,0.0,////,34.6,0.0,12.3,3.511
2012/08/08,11:40:01,153,168,180,2.4,3.1,3.4,30.7,71.3,997.7,0.00,0,0.0,////,0.0,0,0.0,////,33.6,0.0,12.3,3.511
2012/08/08,11:50:01,102,156,206,1.6,1.8,2.0,31.0,70.1,997.5,0.00,0,0.0,////,0.0,0,0.0,////,34.6,0.0,12.3,3.511
2012/08/08,12:00:01,180,182,185,3.9,4.0,4.2,31.2,68.5,997.5,0.00,0,0.0,////,0.0,0,0.0,////,35.1,0.0,12.3,3.510
2012/08/08,12:10:01,132,145,154,2.8,3.0,3.3,31.6,67.2,997.3,0.00,0,0.0,////,0.0,0,0.0,////,36.0,0.0,12.3,3.511
2012/08/08,12:20:01,178,188,193,1.1,1.3,1.7,31.5,68.4,997.4,0.00,0,0.0,////,0.0,0,0.0,////,36.2,0.0,12.3,3.510
2012/08/08,12:30:01,117,153,207,0.5,0.7,1.1,31.4,67.7,997.5,0.00,0,0.0,////,0.0,0,0.0,////,36.0,0.0,12.3,3.511
2012/08/08,12:40:01,104,115,121,2.8,3.0,3.3,29.4,78.2,997.4,0.00,0,0.0,////,0.0,0,0.0,////,32.9,0.0,12.3,3.511
2012/08/08,12:50:01,127,132,139,3.8,4.1,4.3,29.8,79.5,997.3,0.00,0,0.0,////,0.0,0,0.0,////,33.1,0.0,12.3,3.511
2012/08/08,13:00:01,115,118,119,3.1,3.6,4.1,29.6,80.8,997.1,0.00,0,0.0,////,0.0,0,0.0,////,32.2,0.0,12.3,3.511
2012/08/08,13:10:01,123,126,129,4.1,4.4,4.8,30.2,78.1,997.1,0.00,0,0.0,////,0.0,0,0.0,////,33.1,0.0,12.3,3.510
2012/08/08,13:20:01,113,118,124,2.2,2.6,2.8,30.7,75.6,997.0,0.00,20,0.0,////,0.0,0,0.0,////,34.4,0.0,12.3,3.511
2012/08/08,13:30:01,059,074,085,1.3,1.8,2.3,30.4,77.5,996.9,0.00,0,0.0,////,0.0,0,0.0,////,33.9,0.0,12.3,3.511
2012/08/08,13:40:01,049,101,127,1.0,1.1,1.2,29.9,79.2,996.9,0.00,0,0.0,////,0.0,0,0.0,////,32.9,0.0,12.3,3.511
2012/08/08,13:50:01,209,217,224,1.9,2.0,2.2,30.9,71.4,996.8,0.00,0,0.0,////,0.0,0,0.0,////,34.4,0.0,12.3,3.511
2012/08/08,14:00:01,145,165,177,3.4,3.7,3.9,31.0,69.3,996.9,0.00,0,0.0,////,0.0,0,0.0,////,35.1,0.0,12.3,3.509
2012/08/08,14:10:01,152,162,177,1.4,1.8,2.0,31.2,70.9,996.9,0.00,0,0.0,////,0.0,0,0.0,////,35.1,0.0,12.3,3.511
2012/08/08,14:20:01,098,112,127,1.4,2.5,3.2,31.4,68.4,996.9,0.00,0,0.0,////,0.0,0,0.0,////,36.2,0.0,12.3,3.511
2012/08/08,14:30:01,207,207,208,0.7,0.9,1.1,31.3,67.7,996.9,0.00,0,0.0,////,0.0,0,0.0,////,35.3,0.0,12.3,3.510
2012/08/08,14:40:01,104,110,119,1.1,1.2,1.4,31.2,68.1,996.8,0.00,0,0.0,////,0.0,0,0.0,////,35.6,0.0,12.3,3.510
2012/08/08,14:50:01,127,138,155,2.1,2.2,2.3,30.9,69.5,996.9,0.00,0,0.0,////,0.0,0,0.0,////,35.1,0.0,12.3,3.511
2012/08/08,15:00:01,098,104,108,2.5,2.6,2.9,31.0,73.6,996.9,0.00,0,0.0,////,0.0,0,0.0,////,35.1,0.0,12.3,3.511
2012/08/08,15:10:01,107,114,122,2.8,3.2,3.5,30.9,73.3,996.9,0.00,0,0.0,////,0.0,0,0.0,////,35.1,0.0,12.3,3.511
2012/08/08,15:20:01,098,102,107,2.6,3.0,3.4,30.4,76.3,996.7,0.00,0,0.0,////,0.0,0,0.0,////,33.9,0.0,12.3,3.511
2012/08/08,15:30:01,117,125,140,2.1,3.0,3.8,30.0,78.5,996.6,0.00,0,0.0,////,0.0,0,0.0,////,33.1,0.0,12.3,3.511
2012/08/08,15:40:01,097,104,111,2.9,3.5,4.3,29.3,80.4,996.7,0.00,0,0.0,////,0.0,0,0.0,////,32.2,0.0,12.3,3.513
2012/08/08,15:50:01,095,111,132,1.6,2.1,2.9,28.8,82.2,996.8,0.00,0,0.0,////,0.0,0,0.0,////,31.0,0.0,12.3,3.511
2012/08/08,16:00:01,084,107,136,2.1,2.2,2.5,29.3,81.1,996.7,0.00,0,0.0,////,0.0,0,0.0,////,31.5,0.0,12.3,3.511
2012/08/08,16:10:01,110,127,139,2.7,3.0,3.4,29.4,81.5,996.8,0.00,0,0.0,////,0.0,0,0.0,////,31.5,0.0,12.3,3.511
2012/08/08,16:20:01,120,128,143,1.9,2.4,2.8,29.4,78.7,996.9,0.00,0,0.0,////,0.0,0,0.0,////,31.7,0.0,12.3,3.513
2012/08/08,16:30:01,094,102,108,3.7,4.0,4.3,29.3,79.9,996.9,0.00,0,0.0,////,0.0,0,0.0,////,31.2,0.0,12.3,3.511
2012/08/08,16:40:01,114,136,154,2.4,2.6,2.7,29.5,78.1,996.8,0.00,0,0.0,////,0.0,0,0.0,////,31.5,0.0,12.3,3.511
2012/08/08,16:50:01,090,110,134,2.5,3.0,3.7,29.4,78.6,996.9,0.00,0,0.0,////,0.0,0,0.0,////,31.3,0.0,12.3,3.511
2012/08/08,17:00:01,121,129,141,1.7,1.9,2.3,29.5,78.9,997.0,0.00,0,0.0,////,0.0,0,0.0,////,31.5,0.0,12.3,3.511
2012/08/08,17:10:01,073,084,107,1.1,1.5,1.7,29.3,79.3,996.9,0.00,0,0.0,////,0.0,0,0.0,////,30.8,0.0,12.3,3.511
2012/08/08,17:20:01,098,102,105,1.6,1.7,1.8,29.1,79.3,997.0,0.00,0,0.0,////,0.0,0,0.0,////,30.5,0.0,12.2,3.513
2012/08/08,17:30:01,143,154,173,1.1,1.4,1.8,29.1,80.8,997.1,0.00,0,0.0,////,0.0,0,0.0,////,30.5,0.0,12.3,3.511
2012/08/08,17:40:01,093,095,096,1.6,1.8,1.9,29.0,81.8,997.1,0.00,0,0.0,////,0.0,0,0.0,////,30.5,0.0,12.3,3.511
2012/08/08,17:50:01,133,147,163,1.4,1.6,1.8,28.8,77.8,997.1,0.00,0,0.0,////,0.0,0,0.0,////,30.1,0.0,12.3,3.513
2012/08/08,18:00:01,109,152,213,0.5,1.0,1.3,28.8,78.5,997.0,0.00,0,0.0,////,0.0,0,0.0,////,29.6,0.0,12.3,3.511
2012/08/08,18:10:01,115,125,129,1.4,1.5,1.7,28.7,80.9,997.0,0.00,0,0.0,////,0.0,0,0.0,////,29.3,0.0,12.3,3.511
2012/08/08,18:20:01,114,120,127,1.8,1.9,2.0,28.3,83.0,997.0,0.00,0,0.0,////,0.0,0,0.0,////,28.2,0.0,12.3,3.513
2012/08/08,18:30:01,101,113,124,1.6,1.7,1.8,28.1,83.7,997.0,0.00,0,0.0,////,0.0,0,0.0,////,27.7,0.0,12.3,3.511
2012/08/08,18:40:01,113,124,135,1.4,1.7,2.1,27.9,85.2,997.0,0.00,0,0.0,////,0.0,0,0.0,////,27.7,0.0,12.3,3.511
2012/08/08,18:50:01,071,083,091,1.3,1.5,1.7,27.8,85.5,997.2,0.00,0,0.0,////,0.0,0,0.0,////,27.4,0.0,12.3,3.511
2012/08/08,19:00:01,208,216,224,0.9,1.0,1.2,27.9,85.0,997.3,0.00,0,0.0,////,0.0,0,0.0,////,27.2,0.0,12.3,3.513
2012/08/08,19:10:01,169,177,188,1.6,2.2,2.8,27.8,85.8,997.4,0.00,0,0.0,////,0.0,0,0.0,////,27.0,0.0,12.3,3.511
2012/08/08,19:20:01,151,161,173,0.4,0.5,0.7,27.6,85.2,997.6,0.00,0,0.0,////,0.0,0,0.0,////,26.7,0.0,12.3,3.513
2012/08/08,19:30:01,152,161,177,1.9,2.3,2.8,27.6,84.9,997.8,0.00,0,0.0,////,0.0,0,0.0,////,26.7,0.0,12.3,3.511
2012/08/08,19:40:01,127,143,163,1.4,1.5,1.6,27.6,85.0,997.9,0.00,0,0.0,////,0.0,0,0.0,////,26.8,0.0,12.3,3.510
2012/08/08,19:50:01,139,153,177,0.9,1.0,1.1,27.6,85.5,998.1,0.00,0,0.0,////,0.0,0,0.0,////,26.8,0.0,12.3,3.513
2012/08/08,20:00:01,136,141,150,0.9,1.0,1.2,27.6,85.6,998.2,0.00,0,0.0,////,0.0,0,0.0,////,26.8,0.0,12.3,3.513
2012/08/08,20:10:01,111,113,117,0.9,1.3,1.7,27.6,85.9,998.3,0.00,0,0.0,////,0.0,0,0.0,////,26.7,0.0,12.3,3.513
2012/08/08,20:20:01,151,155,161,1.8,2.1,2.3,27.6,85.4,998.4,0.00,0,0.0,////,0.0,0,0.0,////,26.8,0.0,12.3,3.510
2012/08/08,20:30:01,149,157,167,0.9,1.2,1.5,27.7,85.0,998.5,0.00,0,0.0,////,0.0,0,0.0,////,26.8,0.0,12.3,3.511
2012/08/08,20:40:01,125,133,147,2.1,2.5,2.9,27.7,84.3,998.6,0.00,0,0.0,////,0.0,0,0.0,////,26.7,0.0,12.3,3.513
2012/08/08,20:50:01,118,138,168,1.8,2.0,2.2,27.8,84.8,998.6,0.00,0,0.0,////,0.0,0,0.0,////,26.8,0.0,12.3,3.511
2012/08/08,21:00:01,178,196,225,0.2,0.4,0.5,27.7,84.9,998.6,0.00,0,0.0,////,0.0,0,0.0,////,26.8,0.0,12.3,3.511
2012/08/08,21:10:01,168,171,175,3.5,3.7,4.1,27.7,84.8,998.6,0.00,0,0.0,////,0.0,0,0.0,////,26.8,0.0,12.3,3.511
2012/08/08,21:20:01,115,122,129,1.5,1.6,1.7,27.6,85.4,998.7,0.00,0,0.0,////,0.0,0,0.0,////,26.7,0.0,12.3,3.511
2012/08/08,21:30:01,127,146,163,1.4,1.6,1.9,27.4,86.0,998.7,0.00,0,0.0,////,0.0,0,0.0,////,26.3,0.0,12.3,3.513
2012/08/08,21:40:01,125,150,169,1.1,1.5,1.8,27.4,84.6,998.8,0.00,0,0.0,////,0.0,0,0.0,////,26.3,0.0,12.3,3.511
2012/08/08,21:50:01,165,173,179,2.0,2.3,2.6,27.5,86.0,998.8,0.00,0,0.0,////,0.0,0,0.0,////,26.5,0.0,12.3,3.513
2012/08/08,22:00:01,167,175,185,1.9,2.2,2.5,27.4,86.9,998.7,0.00,0,0.0,////,0.0,0,0.0,////,26.3,0.0,12.3,3.513
2012/08/08,22:10:01,158,162,165,1.4,2.0,2.6,27.3,86.0,998.7,0.00,0,0.0,////,0.0,0,0.0,////,26.5,0.0,12.3,3.511